This is the latest recevied weather packets stored in our database for station/object WB4MOZ-3. If no packets are shown the sender has not sent any weather packets the latest 10 day(s).
| Time | Temp. | Humidity | Pressure | Rain* | Wind** | Luminosity | Snow |
|---|---|---|---|---|---|---|---|
| 1777390062 | 32.78° C | 50% | 1017.3 hPa | 0 mm | - | - | - |
| 1777389759 | 32.78° C | 50% | 1017.3 hPa | 0 mm | - | - | - |
| 1777389459 | 32.22° C | 49% | 1017.2 hPa | 0 mm | - | - | - |
| 1777389159 | 32.22° C | 50% | 1017.3 hPa | 0 mm | - | - | - |
| 1777388859 | 31.67° C | 50% | 1017.3 hPa | 0 mm | - | - | - |
| 1777388559 | 32.22° C | 51% | 1017.3 hPa | 0 mm | - | - | - |
| 1777388259 | 31.67° C | 51% | 1017.3 hPa | 0 mm | - | - | - |
| 1777387959 | 31.67° C | 51% | 1017.4 hPa | 0 mm | - | - | - |
| 1777387659 | 31.67° C | 50% | 1017.3 hPa | 0 mm | - | - | - |
| 1777387359 | 31.67° C | 51% | 1017.4 hPa | 0 mm | - | - | - |
| 1777387059 | 31.67° C | 52% | 1017.3 hPa | 0 mm | - | - | - |
| 1777386759 | 31.11° C | 52% | 1017.3 hPa | 0 mm | - | - | - |
| 1777386459 | 31.11° C | 54% | 1017.3 hPa | 0 mm | - | - | - |
| 1777386159 | 31.11° C | 52% | 1017.3 hPa | 0 mm | - | - | - |
| 1777385859 | 31.11° C | 53% | 1017.3 hPa | 0 mm | - | - | - |
| 1777385559 | 31.11° C | 54% | 1017.3 hPa | 0 mm | - | - | - |
| 1777384959 | 30.56° C | 55% | 1017.1 hPa | 0 mm | - | - | - |
| 1777384796 | 31.11° C | 57% | 1017 hPa | 0 mm | - | - | - |
| 1777384497 | 30.56° C | 57% | 1017.2 hPa | 0 mm | - | - | - |
| 1777384196 | 30° C | 58% | 1017.1 hPa | 0 mm | - | - | - |
| 1777383896 | 29.44° C | 60% | 1017.1 hPa | 0 mm | - | - | - |
| 1777383596 | 29.44° C | 57% | 1017.1 hPa | 0 mm | - | - | - |
| 1777382696 | 28.89° C | 62% | 1017.1 hPa | 0 mm | - | - | - |
| 1777382397 | 28.33° C | 60% | 1017.1 hPa | 0 mm | - | - | - |
| 1777382098 | 28.33° C | 66% | 1017.1 hPa | 0 mm | - | - | - |
* Rain latest hour (hover to see other rain measurements)
** Current wind speed in m/s (hover to see current wind gust speed)